Location: Andilly
(49.0093°N, 2.3024°E)
Time: 12:02:54
(UTC+00:00)

Daily predictions for brighter satellites

Satellite Brightness Start Highest point End
(mag) Time Altitude Azimuth Time Altitude Azimuth Time Altitude Azimuth
USA 267 3.7 19:42:36 10° ENE 19:48:43 41° SE 19:54:49 10° SSW
Cosmos 1821 Rocket 4.4 19:46:56 10° SSE 19:52:39 43° E 19:58:27 10° NNE
Shenzhou-11 Module 3.2 19:51:46 10° SW 19:53:31 18° S 19:55:15 10° SE
COSMOS 2406 3.5 19:48:47 10° S 19:54:13 46° ESE 19:59:41 10° NE
Cosmos 1743 Rocket 3.6 19:51:08 10° S 19:55:35 89° E 20:00:05 10° N
CZ-2C R/B 3.9 19:51:34 10° NNE 19:56:07 51° E 20:00:32 10° S
SL-16 R/B 4.3 19:52:53 10° N 19:56:19 16° NNE 19:59:44 10° ENE
Cosmos 2366 rocket 4.2 19:50:13 10° S 19:56:28 82° W 20:02:42 10° N
Intercosmos 25 3.8 19:52:52 10° N 19:57:30 46° ENE 20:00:51 10° SSE
MOS 1 Rocket 4.4 19:52:29 10° N 19:57:51 59° WNW 20:03:08 10° SSW
Lacrosse 5 3.2 19:54:45 10° WNW 19:59:25 35° N 20:04:05 10° ENE
Cosmos 2369 4.1 19:56:40 10° NNW 20:02:20 54° NE 20:07:55 10° SE
Cosmos 1862 3.4 19:59:51 10° S 20:03:50 59° E 20:07:50 10° NNE
Sich 1 3.6 20:00:39 10° SSE 20:04:48 41° E 20:08:58 10° NNE
SJ-6B 4.1 20:02:23 10° S 20:06:16 42° W 20:10:07 10° NNW
Meteor 2-6 Rocket 4.3 20:01:06 10° NNW 20:06:36 85° W 20:12:13 10° S
Cosmos 1818 3.6 20:01:27 10° NW 20:06:57 78° NE 20:12:23 10° SE
BREEZE-M DEB (TANK) 1.9 20:03:43 10° W 20:07:34 86° S 20:09:33 10° E
IRIDIUM 106 4.3 20:03:35 10° S 20:08:44 68° E 20:13:56 10° N
Cosmos 2082 Rocket 3.2 20:04:55 10° SSE 20:09:33 26° ESE 20:14:12 10° NE
Cosmos 2278 4.3 20:06:03 10° NNW 20:11:33 45° NE 20:16:44 11° SE
Cosmos 2123 Rocket 4.5 20:06:15 10° N 20:12:09 43° ENE 20:18:03 10° SE
Cosmos 1500 Rocket 4.1 20:10:45 10° SSW 20:15:00 61° WNW 20:19:19 10° N
Spot 2 Rocket 4.0 20:11:29 10° SE 20:16:20 45° ENE 20:21:11 10° N
Cosmos 2322 Rocket 4.2 20:15:08 10° N 20:18:58 18° NE 20:22:48 10° E
Meteor 1-4 Rocket 3.3 20:16:42 10° N 20:19:56 33° ENE 20:22:26 14° SE
Resurs 1-3 4.1 20:15:38 10° S 20:19:58 62° WSW 20:24:21 10° NNW
Cosmos 1190 Rocket 4.5 20:17:26 10° S 20:22:19 40° ESE 20:27:15 10° NE
Cosmos 1184 Rocket 4.5 20:21:02 14° ESE 20:22:25 18° E 20:24:42 10° NE
CZ-2C R/B 3.2 20:18:44 10° N 20:23:51 62° WNW 20:28:57 10° SSW
Terra 3.5 20:21:08 10° ESE 20:24:30 20° ENE 20:27:59 10° NNE
Cosmos 407 Rocket 3.7 20:20:04 10° S 20:25:12 51° ESE 20:30:19 10° NNE
USA 234 3.4 20:18:46 10° ESE 20:25:16 77° NNE 20:31:49 10° NW
Cosmos 1666 Rocket 3.9 20:22:16 10° SSE 20:26:22 44° E 20:30:30 10° NNE
Cosmos 1238 Rocket 4.2 20:28:02 13° E 20:28:24 13° E 20:29:49 10° ENE
Meteor 1-27 Rocket 3.9 20:24:45 10° N 20:30:41 80° ENE 20:36:39 10° SSE
MetOp-B 4.1 20:25:55 10° SSE 20:31:16 77° ENE 20:36:38 10° NNW
Cosmos 2360 Rocket 4.4 20:29:45 10° N 20:32:52 15° NNE 20:35:58 10° ENE
BREEZE-M DEB (TANK) 4.0 20:32:45 10° W 20:36:31 19° SW 20:38:46 10° S
ERBS 3.8 20:33:39 10° W 20:36:48 39° NNW 20:39:57 10° NE
USA 238 DEB 4.4 20:32:30 10° S 20:37:59 28° ESE 20:43:38 10° ENE
USA 238 4.4 20:32:38 10° S 20:38:05 28° ESE 20:43:43 10° ENE
Cosmos 1805 Rocket 3.9 20:33:41 10° SSW 20:38:06 72° W 20:42:34 10° N
SPOT 5 3.7 20:35:55 16° ESE 20:38:40 31° ENE 20:42:29 10° N
Cosmos 1980 Rocket 2.3 20:37:10 10° NNW 20:42:50 65° ENE 20:47:05 18° SE
SPOT 1/Viking Rocket 3.7 20:39:53 15° SSE 20:44:09 63° ENE 20:49:21 10° N
SL-4 R/B 2.2 20:43:46 10° SW 20:47:28 39° SSE 20:50:55 10° ENE
BREEZE-M DEB (TANK) 2.3 20:45:40 10° WSW 20:48:19 85° SSE 20:55:04 10° E
Genesis I 3.4 20:44:33 10° NW 20:48:24 61° NE 20:50:44 22° ESE
Cosmos 405 Rocket 4.0 20:49:21 20° ESE 20:50:10 22° E 20:53:04 10° NE
Cosmos 1140 Rocket 3.5 20:45:39 10° S 20:50:49 65° ESE 20:56:03 10° NNE
ATLAS 5 CENTAUR R/B 3.5 20:46:00 10° NW 20:51:18 38° WSW 20:57:17 10° S
Cosmos 389 Rocket 4.3 20:51:16 10° NW 20:54:14 27° W 20:57:12 10° SSW
Cosmos 1023 Rocket 4.4 20:50:05 10° SSW 20:55:20 72° ESE 21:00:37 10° NNE
USA 32 4.2 20:53:02 16° SSE 20:57:09 55° E 21:02:16 10° NNE
Cosmos 1812 4.2 20:53:48 10° NNW 20:57:19 34° W 21:00:48 10° SSW
Cosmos 1697 Rocket 3.1 20:53:00 10° NW 20:58:32 59° WSW 21:03:04 15° S
Cosmos 1633 Rocket 3.0 20:55:12 10° S 20:59:37 81° E 21:04:04 10° NNE
Cosmos 1833 Rocket 2.7 20:54:19 10° SSW 20:59:56 86° WNW 21:05:37 10° NNE
Cosmos 1867 3.7 21:01:02 10° SSW 21:06:15 51° ESE 21:11:32 10° NE
CENTAUR R/B 3.4 21:04:45 22° SE 21:06:38 25° ESE 21:11:59 10° ENE
Okean 1-7 4.1 21:03:01 10° N 21:06:53 30° ENE 21:08:30 23° ESE
Resurs 01 Rocket 3.3 21:06:15 10° SSW 21:10:08 30° W 21:14:04 10° NNW
Landsat 7 4.2 21:08:59 16° S 21:12:44 62° WSW 21:17:28 10° NNW
FALCON 9 DEB 3.4 21:09:49 10° SW 21:13:11 45° SE 21:15:22 19° E
deb Kosmos-1763 3.9 21:14:16 15° SSW 21:17:08 83° ESE 21:20:49 10° NNE
Cosmos 676 Rocket 4.0 21:14:25 10° SSW 21:19:43 72° ESE 21:25:03 10° NNE
Cosmos 192 4.3 21:15:21 10° NNW 21:20:18 81° WSW 21:22:57 27° SSE
ATLAS 5 CENTAUR R/B 3.2 21:18:17 10° NNW 21:20:29 26° NE 21:23:25 15° E
IGS 5A 4.3 21:17:34 16° SSW 21:20:34 46° W 21:24:35 10° NNW
Meteor 1-25 Rocket 4.1 21:17:53 18° S 21:22:05 71° E 21:27:41 10° NNE
Cosmos 1470 Rocket 3.5 21:19:31 22° S 21:22:20 79° E 21:26:45 10° NNE
Cosmos 1934 Rocket 4.3 21:18:04 10° SSW 21:24:24 71° WNW 21:30:48 10° N
Aureole 1 Rocket 4.4 21:18:44 10° SSW 21:25:34 87° ESE 21:33:56 10° NNE
GP-B 3.6 21:22:53 10° N 21:27:16 59° W 21:30:41 16° SSW
USA 267 3.4 21:25:31 10° NE 21:32:05 79° NNW 21:38:37 10° WSW
NOSS 3-2 (A) 3.4 21:26:40 10° SSW 21:32:15 59° ESE 21:38:38 10° NE
Cosmos 921 Rocket 2.9 21:29:01 10° NNW 21:33:17 81° WSW 21:34:51 38° S
Cosmos 1862 Rocket 4.3 21:31:09 10° NNW 21:35:28 49° W 21:38:10 21° SSW
NOSS 3-2 (C) 3.7 21:35:51 28° SSE 21:38:17 42° ESE 21:44:17 10° NE
ERS-1 Rocket 3.2 21:36:09 26° S 21:38:57 66° WSW 21:43:58 10° NNW
Cosmos 841 Rocket 4.3 21:34:54 10° NNW 21:39:49 39° ENE 21:42:00 27° ESE
SAR-Lupe-2 3.5 21:37:05 10° NNE 21:40:41 84° WNW 21:41:56 39° SSW
Cosmos 540 Rocket 4.3 21:36:24 10° N 21:41:16 39° ENE 21:43:22 27° ESE
SL-16 R/B 2.5 21:36:05 10° NNW 21:41:42 58° ENE 21:44:17 31° ESE
Lacrosse 5 2.0 21:37:58 10° NW 21:43:03 70° NNE 21:45:31 30° ESE
Cosmos 468 Rocket 4.0 21:38:13 10° NNW 21:43:35 81° ENE 21:45:45 37° SSE
Cosmos 1741 Rocket 4.2 21:48:23 38° SSE 21:49:57 51° ESE 21:55:03 10° NNE
Cosmos 2219 Rocket 4.3 21:48:14 10° N 21:52:13 19° NE 21:56:12 10° E
Cosmos 1954 Rocket 4.4 21:47:49 10° SSW 21:53:06 66° WNW 21:58:26 10° NNE
Cosmos 2082 Rocket 2.8 21:47:38 10° SW 21:53:15 59° WNW 21:58:54 10° NNE
Terra 2.1 22:00:02 36° SSW 22:01:49 62° WSW 22:06:35 10° NNW
Aureole 2 4.3 22:03:02 80° S 22:03:11 85° ESE 22:07:07 10° NNE
Cosmos 1933 Rocket 4.1 22:01:23 27° SW 22:03:37 57° WNW 22:08:01 10° N
Cosmos 2322 Rocket 2.3 21:58:24 10° NNW 22:04:07 69° ENE 22:06:13 39° SE
Okean 1 4.1 22:02:04 10° NNW 22:05:58 45° W 22:07:07 35° SW
Cosmos 1238 Rocket 3.9 22:06:53 24° WSW 22:07:44 28° WNW 22:10:21 10° NNW
Cosmos 2100 Rocket 3.9 22:05:35 37° SSE 22:08:07 71° E 22:14:16 10° NNE
Cosmos 1602 4.5 22:06:47 32° SW 22:08:14 50° WNW 22:12:06 10° N
USA 234 3.9 22:06:06 30° S 22:08:37 42° SW 22:14:46 10° WNW
Meteor 1-11 Rocket 4.3 22:09:09 36° ESE 22:10:13 39° E 22:15:30 10° NNE
Cosmos 1437 Rocket 2.9 22:06:35 10° NNW 22:10:21 58° W 22:10:50 53° SW
Cosmos 1242 Rocket 4.3 22:09:23 10° NNE 22:12:07 22° ENE 22:12:07 22° ENE
Cosmos 1869 Rocket 3.5 22:13:01 60° SSE 22:13:43 76° E 22:18:12 10° NNE
SPOT 5 4.0 22:15:08 24° SW 22:16:45 31° W 22:20:38 10° NNW
Cosmos 2360 Rocket 2.7 22:12:43 10° NNW 22:18:17 52° NE 22:20:20 35° ESE
COSMOS 2428 4.5 22:14:17 10° NNW 22:18:54 24° NE 22:22:37 13° E
MTI 4.5 22:16:08 10° NNE 22:18:29 48° NNE 22:18:29 48° NNE
JB-3 4.4 22:16:01 10° N 22:20:01 74° WNW 22:20:44 57° SW
ATLAS 3B R/B 3.3 22:21:12 33° ESE 22:21:24 33° ESE 22:27:12 10° NE
Geosat 3.9 22:20:48 51° SE 22:22:07 87° ENE 22:27:11 10° NNW
Iridium 4 Rocket 2.9 22:21:45 65° S 22:22:21 87° E 22:26:37 10° N
Cosmos 1703 Rocket 4.4 22:19:01 10° NNW 22:23:09 43° W 22:24:15 35° SW
Cosmos 2173 Rocket 3.9 22:21:11 39° S 22:23:41 85° E 22:29:51 10° N
Cosmos 1500 3.1 22:25:10 83° NW 22:25:10 83° NW 22:28:53 10° N
Cosmos 405 Rocket 4.3 22:24:29 22° WSW 22:26:01 30° WNW 22:29:21 10° N
Cosmos 1980 Rocket 3.9 22:21:57 10° NW 22:26:21 24° WSW 22:28:51 18° SW
SL-4 R/B 1.9 22:23:10 10° W 22:26:57 69° NNW 22:27:13 66° NNE
USA 238 DEB 3.8 22:21:39 10° SW 22:28:18 75° NW 22:35:18 10° NE
ALOS 2 3.6 22:27:44 32° E 22:28:19 34° ENE 22:32:17 10° N
USA 238 3.8 22:21:46 10° SW 22:28:25 75° NW 22:35:24 10° NE
Cosmos 1725 Rocket 4.2 22:27:20 42° SE 22:29:03 55° E 22:35:13 10° NNE
Cosmos 1763 Rocket 4.0 22:24:34 10° NNW 22:29:43 50° WSW 22:31:09 39° SSW
Cosmos 1674 Rocket 4.4 22:28:59 10° N 22:33:01 36° ENE 22:33:13 36° E
Cosmos 1536 3.5 22:34:39 42° ENE 22:34:39 42° ENE 22:37:55 10° NNE
Cosmos 1666 3.2 22:37:32 48° NE 22:37:32 48° NE 22:40:33 10° NNE
Cosmos 2333 Rocket 3.4 22:33:21 10° NNW 22:38:39 35° NE 22:41:19 24° E
Cosmos 1271 Rocket 4.4 22:37:52 10° NNE 22:40:47 24° ENE 22:40:47 24° ENE
Cosmos 2016 Rocket 3.9 22:39:51 46° S 22:41:55 80° E 22:48:19 10° N
Meteor 1-13 Rocket 4.1 22:36:31 10° NNW 22:42:06 83° W 22:43:23 54° S
Meteor 1-5 Rocket 4.3 22:40:38 43° SSW 22:42:46 84° WNW 22:48:45 10° N
Cosmos 2061 Rocket 3.9 22:41:23 47° S 22:43:18 81° E 22:49:32 10° N
Lacrosse 4 Rocket 3.6 22:45:24 15° ENE 22:45:24 15° ENE 22:46:35 10° ENE
Okean 1-7 4.4 22:40:38 10° NNW 22:44:24 29° W 22:45:21 27° WSW
MOS 1-B Rocket 3.7 22:39:19 10° NNE 22:45:04 87° ESE 22:46:44 48° SSW
Cosmos 1459 Rocket 4.2 22:42:36 35° SSW 22:45:22 70° WNW 22:51:45 10° N
Cosmos 2221 Rocket 3.5 22:41:42 10° NNW 22:46:11 80° W 22:46:29 75° SSW
Okean 3 3.7 22:46:05 10° NNW 22:50:18 58° W 22:50:30 58° WSW
Cosmos 1733 Rocket 3.2 22:50:59 60° E 22:50:59 60° E 22:55:08 10° NNE
Cosmos 1066 Rocket 4.2 22:46:50 10° N 22:52:36 73° ENE 22:53:46 56° SE
SL-27 R/B 3.5 22:53:08 42° NW 22:53:08 42° NW 22:55:53 10° NNE
Meteor 1-23 Rocket 4.3 22:48:34 10° N 22:54:25 73° ENE 22:55:43 54° SE
Cosmos 1864 Rocket 4.4 22:53:22 50° S 22:55:08 84° E 23:01:24 10° N
Thor Agena Rocket 3.4 22:51:12 10° NNE 22:56:18 80° ESE 22:56:59 66° S
CENTAUR R/B 2.7 22:51:50 19° SW 22:56:27 78° NW 23:03:45 10° NE
Cosmos 967 Rocket 4.4 22:53:12 10° NW 22:59:35 73° WSW 23:01:03 53° S
Cosmos 1802 Rocket 4.2 22:58:41 37° SSW 23:01:16 66° WNW 23:07:38 10° N
Cosmos 44 3.4 22:56:31 10° NW 23:01:21 60° WSW 23:01:33 59° SW
Spot 4 4.0 23:06:33 56° SW 23:06:58 58° W 23:11:45 10° NNW
Cosmos 1378 3.8 23:09:29 10° N 23:12:29 51° NNE 23:12:29 51° NNE
USA 267 4.2 23:08:31 10° ENE 23:14:43 47° N 23:20:54 10° W
Cosmos 2233 Rocket 3.9 23:14:31 55° SSE 23:16:00 78° E 23:22:20 10° NNE
Cosmos 1908 Rocket 4.2 23:18:33 44° ENE 23:18:33 44° ENE 23:22:16 10° NNE
Cosmos 841 Rocket 4.4 23:16:56 10° NW 23:21:38 34° WSW 23:22:05 34° WSW
Cosmos 540 Rocket 4.4 23:18:09 10° NW 23:22:48 34° WSW 23:23:10 34° WSW
SL-16 R/B 3.5 23:20:48 10° NW 23:25:26 26° WSW 23:26:08 26° WSW
Lacrosse 5 3.1 23:21:17 10° WNW 23:24:41 29° WSW 23:24:41 29° WSW
Cosmos 2322 3.6 23:22:55 10° NNW 23:28:39 89° ENE 23:29:31 65° SSE
Cosmos 1378 Rocket 3.6 23:24:32 10° NNW 23:28:49 77° WNW 23:28:49 77° WNW
NOSS 3-2 (C) 4.2 23:23:18 10° WSW 23:29:03 51° NW 23:35:43 10° NE
Cosmos 1833 4.0 23:28:44 66° S 23:29:33 83° ESE 23:35:15 10° NNE
COSMOS 2487 3.9 23:32:14 35° NNE 23:32:14 35° NNE 23:34:20 10° NNE
Cosmos 2084 Rocket 4.2 23:35:30 43° WNW 23:36:14 49° NW 23:40:29 10° NE
Cosmos 2219 Rocket 2.2 23:31:28 10° NNW 23:37:11 75° ENE 23:38:19 57° SE
Tsikada Rocket 4.5 23:32:04 10° NNW 23:38:11 50° W 23:39:45 41° SW
EO 1 Del DPAF 4.4 23:36:38 10° N 23:39:56 37° WNW 23:39:56 37° WNW
Cosmos 1975 Rocket 3.6 23:38:02 10° N 23:42:25 51° ENE 23:42:25 51° ENE
Cosmos 2333 4.1 23:37:15 10° NNW 23:43:03 74° WSW 23:43:44 66° SSW
Cosmos 1503 Rocket 4.4 23:45:55 50° ESE 23:45:59 50° ESE 23:51:11 10° NNE
Cosmos 1242 Rocket 4.4 23:43:58 10° NNW 23:46:08 25° WNW 23:46:08 25° WNW
Cosmos 2322 Rocket 3.7 23:43:22 10° NW 23:47:37 22° W 23:48:01 22° WSW
YAOGAN 11 4.2 23:48:26 73° ENE 23:48:29 73° ENE 23:53:05 10° N
Helios 1A 3.1 23:49:48 72° N 23:49:48 72° N 23:53:39 10° NNW
ERBS 4.2 23:47:53 10° NW 23:50:49 27° NNE 23:51:02 27° NNE
SL-16 R/B 4.4 23:46:26 10° ESE 23:51:13 24° NE 23:55:59 10° N
Cosmos 1486 Rocket 3.8 23:52:11 76° SW 23:52:37 87° WNW 23:57:52 10° NNE
SL-16 R/B 4.4 23:48:24 10° N 23:52:40 21° NE 23:56:54 10° E
CZ-2D R/B 4.5 23:51:31 10° ENE 23:53:15 11° E 23:54:54 10° ESE
Cosmos 1544 4.1 23:54:38 44° NNE 23:54:38 44° NNE 23:57:16 10° NNE
Sich 1 Rocket 4.5 23:55:31 39° E 23:55:31 39° E 23:59:16 10° NNE
